Torna al catalogo

GEESAT 5-10

AttivoComunicazioniLEO
NORAD 65559·PAYLOAD·🇨🇳 China

Lanciato Sep 8, 2025 da Yellow Sea Launch Area

Loading…

Prossimi Passaggi (prossime 24 ore)

TLE

AggiornatoSource: Space-Track

Epoca: Sep 14, 2026, 14:52 UTC

1 65559U 25201K   26257.61976452  .00001172  00000-0  16487-3 0  9992
2 65559  49.9846 343.8198 0007717 268.6206  91.3848 14.84383837 55080

Traccia GEESAT 5-10 in tempo reale con AllMySat

Download on the App Store